Location: Cedar Brake
(32.2526°N, 97.8459°W)
Time: 07:49:22
(UTC+00:00)

USA 234 - Pass Details

Date: 22 April 2026
Orbit: 1102 x 1106 km, 123.0° (Epoch: 4 January)

Event Time Altitude Azimuth Distance (km) Brightness Sun altitude
Rises 10:49:36 0° 134° (SE) 3,905 6.4 -13.7°
Reaches altitude 10° 10:52:04 10° 133° (SE) 2,949 5.8 -13.2°
Maximum altitude 10:58:35 83° 47° (NE) 1,111 3.4 -12.0°
Drops below altitude 10° 11:05:08 10° 320° (NW) 2,960 5.3 -10.7°
Sets 11:07:37 0° 320° (NW) 3,920 6.0 -10.2°
